Long Island Mac Arthur Airport
KISP : now visible

Airfield :











YOU CAN JOIN US ON...

 
LOGIN :

Register | Disclaimer

   EN    FR    IT 

 









Legend :    VFR   Marginal VFR   IFR   Intensive IFR   Very Intensive IFR
Visi :
Ceiling :
>= 8 km
>= 3000ft
5 to 8 km
1000 to 3000 ft
1500m to 5 km
500 to 1000 ft
800 to 1500m
200 to 500 ft
< 800m
< 200 ft
Symbols :   Thunderstorms  Fog  Heavy snow  Heavy precipitations  Wind > 20 kt






- Airport Elevation : 99 ft
- IATA code : ISP


KISP - Long Island Mac Arthur

CURRENT METAR :
  • 280556Z AUTO 35010KT 10SM CLR 11/08 A2985 RMK AO2 SLP108 T01060078 10128 20106 53005

EXPIRED METARs :
  • 280456Z AUTO 33006KT 10SM BKN041 11/09 A2984 RMK AO2 SLP105 T01110089 401500106
  • 280356Z 35005KT 10SM FEW055 11/08 A2982 RMK AO2 SLP097 LAST T01060078

TAF KISP
Valid from the 28 at 06:00 until the 29 at 06:00 UTC


280532Z 2806/2906 36007KT P6SM SCT040
FM281300 02008KT P6SM BKN025
FM281800 04009KT P6SM BKN035
FM290200 05006KT P6SM BKN035
KZBW FIR / North America



MET'MAP, your aeronautical weather chart ! - Copyright ORBIFLY December 2007 - Disclaimer

ORBIFLY MET'MAP TEAM :

Programming & Development : Alexandra Zaïnal
Concept & original design : Baudouin d'Aumeries
Assistance for programming : Marc-Olivier Méhu
Technical & hardware support : Manuel Goepfert

Contact : metmap@orbifly.com




SOURCES & CREDITS :

   NOAA       Earth
Advisory